Vorticity
7 8 9 10 10 10 10 9 9 9 9 9 9 9 10 11 11 11 11 11 11 11 11 11 11 11 11 11 11 11 10 10 10 9 9 9 9 9 10 11 12 12 13 13 13 13 13 13 14 14 15 15 15 15 15 14 14 15 15 16 17 19 21 23 24 24 22 20 19
7 8 9 10 10 10 9 9 8 8 8 9 9 9 9 10 10 10 10 11 10 10 10 10 11 11 10 10 10 10 10 10 10 10 9 9 9 9 9 9 10 11 11 12 12 13 13 13 13 13 14 15 15 16 15 15 14 14 15 15 17 19 21 23 24 24 23 21 20
7 8 9 10 10 9 9 8 8 8 8 8 8 9 9 10 10 10 10 10 10 10 10 10 11 11 11 10 10 10 10 10 10 10 10 9 9 9 9 9 9 10 11 11 11 12 12 12 12 12 13 14 15 15 16 16 15 14 15 15 17 19 21 23 24 25 24 22 20
8 8 9 10 10 9 9 8 8 8 8 8 8 9 9 9 10 10 10 11 11 11 11 11 11 11 11 11 11 11 11 10 10 10 10 10 10 9 9 9 9 10 10 11 11 11 12 12 12 12 12 13 14 15 15 16 15 15 15 15 17 19 21 23 24 25 24 22 20
8 9 9 10 9 9 8 8 8 8 8 8 9 9 10 10 10 11 11 12 12 12 12 12 12 12 12 12 12 12 11 11 11 11 11 11 11 11 10 10 10 10 10 11 11 11 11 11 11 11 12 12 13 14 15 15 15 15 15 16 17 19 21 23 24 24 24 22 20
8 9 9 10 9 8 8 8 8 8 8 9 9 10 10 11 12 12 12 13 13 13 13 13 13 13 13 13 13 13 13 13 13 13 13 13 13 13 12 12 12 11 11 11 12 11 11 11 11 11 11 11 12 13 14 14 14 14 15 17 18 19 21 23 24 24 24 22 21
8 9 9 9 9 8 8 8 8 8 9 10 11 11 12 12 13 13 14 14 14 14 14 14 14 14 14 14 14 15 15 15 15 16 16 16 16 16 15 14 14 13 13 12 13 13 13 12 12 11 11 11 12 12 13 13 13 14 15 16 18 20 22 23 25 25 24 22 20
9 9 10 9 9 8 8 8 8 9 9 10 11 12 13 13 14 14 14 14 15 15 15 15 15 15 15 15 16 16 17 17 18 18 18 18 19 18 18 17 16 16 15 14 14 14 14 13 12 12 11 11 11 12 12 12 12 13 14 16 18 20 22 24 25 25 24 22 21
9 9 9 9 9 8 8 8 8 9 10 11 12 13 13 14 14 14 15 15 15 15 16 16 16 16 17 17 17 18 18 19 19 19 20 20 20 20 20 19 19 18 17 16 16 16 16 15 14 13 12 12 12 11 11 11 11 12 13 15 18 20 22 24 25 25 24 23 21
9 9 9 9 9 8 8 8 8 9 10 11 12 13 14 14 14 15 15 16 16 16 17 17 17 18 18 18 19 19 19 20 20 20 20 21 21 21 21 20 20 19 19 18 18 18 17 16 15 14 13 12 12 11 11 10 11 12 13 14 17 20 23 24 25 25 25 23 21
8 9 9 9 8 8 7 7 8 9 10 11 12 13 14 14 15 15 15 15 16 17 18 18 19 19 19 20 21 21 22 23 23 23 23 23 22 22 22 21 21 20 20 19 19 19 18 18 16 15 14 13 12 12 11 10 11 11 12 13 16 20 23 25 25 25 25 23 21
8 9 9 9 8 7 7 7 8 9 10 11 12 13 14 14 14 14 14 16 17 18 19 20 21 22 23 25 27 28 30 31 31 31 30 29 28 26 25 24 22 22 21 20 20 20 19 18 17 16 15 14 13 12 11 10 11 11 12 13 15 19 22 25 26 25 24 23 21
8 9 9 9 8 7 7 7 8 9 10 11 12 13 13 14 13 13 14 16 18 20 21 23 26 28 31 34 37 39 41 42 41 41 40 38 36 33 31 28 26 24 22 21 21 20 19 19 18 17 16 15 14 13 11 10 11 11 12 13 14 18 21 25 25 25 24 23 21
9 9 9 9 8 7 7 7 8 9 10 11 12 13 13 13 12 12 14 16 19 22 25 29 33 37 41 44 46 47 48 48 48 48 47 46 44 41 37 34 30 27 25 23 21 21 20 19 19 18 17 16 15 14 12 11 11 11 12 12 14 17 21 24 25 25 24 22 21
9 10 9 9 8 7 7 7 8 8 9 10 11 12 12 12 11 12 14 18 23 27 31 36 41 45 47 48 48 47 47 47 48 49 49 49 48 46 42 38 34 31 28 25 23 22 21 20 18 17 16 16 15 14 13 11 11 11 12 12 14 16 20 24 25 25 24 22 20
10 10 9 9 7 7 6 7 7 8 9 10 11 12 12 11 10 11 15 21 26 32 38 44 46 47 46 45 43 42 42 43 44 46 48 50 50 48 45 41 37 33 30 26 25 23 21 19 18 17 17 16 16 15 13 12 11 11 12 12 14 16 20 23 25 25 23 22 20
11 10 10 8 7 6 6 6 7 8 8 9 11 11 11 9 9 12 17 24 31 37 43 47 47 44 41 38 37 37 38 39 42 44 47 50 50 48 45 42 38 34 31 28 26 24 22 19 18 18 17 17 16 15 14 13 12 11 12 13 14 16 19 23 24 24 23 21 19
11 10 9 8 7 6 6 7 7 7 8 9 11 11 10 8 9 13 19 28 35 41 45 47 44 40 36 33 34 35 37 40 43 46 49 52 51 48 45 42 39 36 33 31 28 25 22 20 19 18 18 17 17 16 15 13 12 12 12 13 14 16 18 21 22 23 22 21 19
12 11 9 8 7 7 7 7 7 7 8 9 10 10 9 8 9 14 21 31 39 44 46 44 40 36 32 31 33 36 40 44 47 50 53 54 51 47 43 39 36 36 36 35 31 28 24 22 21 20 19 18 17 16 15 13 13 12 13 14 15 16 18 20 21 22 21 20 19
12 11 10 9 8 7 7 7 7 7 8 9 10 10 9 7 9 15 24 34 42 46 45 41 36 32 30 31 35 40 45 50 53 55 55 52 46 38 30 23 23 26 30 32 31 29 27 24 23 23 22 20 18 17 16 14 14 13 14 14 16 17 19 21 22 22 21 20 19
13 12 11 9 9 8 8 8 7 7 8 9 10 10 8 6 10 17 26 36 43 46 44 39 33 30 30 34 40 46 51 55 56 54 49 41 29 17 9 6 8 11 14 17 23 27 29 28 27 26 25 23 21 19 18 16 15 15 15 16 17 19 21 22 23 22 22 20 19
14 13 12 11 10 9 9 8 7 7 8 9 10 9 8 6 11 18 28 39 45 47 44 37 31 30 32 39 46 51 54 55 52 45 34 22 10 3 0 1 1 2 4 8 17 24 27 27 28 28 26 24 23 21 19 18 17 16 17 17 18 20 22 23 23 22 21 20 19
15 14 13 12 11 10 9 9 8 7 8 9 10 9 8 6 11 19 29 41 47 47 43 36 31 32 37 46 50 51 50 47 40 30 19 8 1 -1 -1 1 1 3 6 10 14 17 18 19 22 24 24 23 22 21 20 19 18 18 18 18 19 21 22 23 23 22 21 20 19
16 15 14 12 12 11 10 9 8 8 8 9 9 8 7 6 11 19 30 42 48 48 43 35 32 36 43 50 49 46 41 34 26 19 11 3 -1 -1 2 4 6 8 9 7 4 5 9 12 15 18 20 21 21 21 20 19 19 18 18 18 19 20 22 24 23 23 21 20 19
17 16 15 13 12 12 11 10 9 8 8 8 9 8 7 6 11 20 30 42 49 49 44 35 35 41 46 47 43 37 31 25 19 15 9 3 1 2 5 8 10 7 3 -1 -1 2 6 10 11 14 17 19 21 21 21 19 18 17 17 16 18 20 22 24 24 23 22 20 19
18 16 15 14 13 12 11 10 9 8 7 8 8 8 7 6 11 20 31 42 50 50 45 36 38 43 45 41 34 28 24 20 17 13 9 5 4 6 8 11 7 -1 -8 -7 1 5 8 11 10 11 14 18 20 21 21 19 18 17 17 16 17 20 22 24 24 23 22 20 19
18 17 15 14 13 12 12 11 9 8 7 8 8 8 7 6 11 20 31 43 50 50 46 39 41 43 41 35 28 23 20 18 15 13 10 7 6 6 8 10 0 -9 -14 -8 -1 8 15 15 10 8 10 14 16 17 19 20 19 19 18 16 17 20 22 23 24 23 22 20 19
18 16 15 14 13 13 12 11 9 8 8 8 8 8 6 6 11 19 31 42 48 50 48 43 44 43 38 30 25 21 19 16 13 10 7 4 4 5 5 5 -4 -11 -12 -7 2 13 21 18 11 7 6 7 7 9 13 18 20 19 16 15 16 19 21 22 23 23 22 20 18
17 16 15 14 14 13 12 12 10 9 8 8 8 7 7 6 10 18 29 41 48 51 50 45 44 41 36 29 24 21 17 14 11 8 5 3 3 3 3 -0 -5 -9 -11 -13 9 20 23 20 11 7 5 2 0 3 8 15 16 15 13 11 14 17 20 22 22 22 21 19 17
17 16 15 15 14 14 13 13 11 9 8 8 8 8 7 6 9 16 27 40 49 52 50 44 42 40 36 30 24 20 16 13 10 8 5 3 3 4 2 -4 -9 -10 -10 -8 12 21 22 21 14 10 7 3 1 5 10 14 13 11 10 10 13 16 19 21 21 21 20 19 17
17 16 15 15 14 14 14 13 11 10 8 8 8 8 7 6 8 15 25 38 48 51 50 45 44 41 37 31 25 21 17 14 11 8 6 4 4 4 2 -6 -15 -16 -10 2 13 17 18 18 15 12 8 4 5 8 13 14 11 10 9 11 13 16 19 20 20 20 19 18 17
16 16 15 15 15 14 14 13 12 10 9 8 8 8 8 7 8 13 21 34 44 49 51 49 45 41 37 32 27 23 20 16 13 10 7 6 5 4 2 -6 -20 -22 -13 6 13 14 13 14 13 11 8 4 5 9 12 14 11 10 11 13 15 17 19 20 20 19 19 18 17
15 16 15 15 15 14 14 14 12 11 9 8 8 9 8 7 8 11 18 29 40 48 51 50 45 40 36 32 28 25 23 20 16 13 10 8 5 5 4 -0 -19 -27 -20 4 13 14 10 9 9 7 5 3 5 8 11 13 12 13 14 16 17 18 19 19 19 19 19 18 17
14 15 15 15 15 14 14 14 13 11 9 8 8 9 9 8 8 10 16 25 36 45 51 52 48 43 37 32 29 27 25 24 21 18 14 10 7 6 6 6 -10 -25 -27 -5 11 13 9 5 4 3 2 1 3 6 9 12 14 15 17 19 20 20 20 19 19 19 19 18 17
14 14 15 15 14 14 14 14 13 11 10 8 8 9 10 10 9 10 14 20 30 40 47 53 51 46 40 34 30 27 26 25 25 23 20 15 11 8 8 10 2 -16 -27 -16 2 7 7 5 6 7 7 7 7 7 9 10 13 16 19 22 23 22 21 20 19 19 18 18 17
13 14 14 14 14 14 14 14 13 12 10 9 8 9 10 10 10 10 11 16 25 34 42 49 52 50 45 38 33 29 26 24 24 25 24 22 17 12 9 9 10 -1 -14 -16 0 5 4 5 9 12 14 15 13 11 10 10 12 15 19 22 23 24 23 21 20 19 18 18 17
12 13 14 14 14 14 14 14 14 13 11 9 9 9 10 10 10 9 10 13 20 28 37 45 50 52 50 45 38 33 28 25 23 22 22 23 21 17 14 11 14 10 3 -6 6 8 5 5 9 13 16 17 14 12 10 10 11 14 18 22 24 24 24 23 21 19 18 17 17
11 13 13 14 14 14 14 14 14 13 11 9 9 9 9 10 10 9 10 11 16 23 30 39 47 52 53 50 44 37 32 29 25 22 20 20 20 18 17 15 17 17 14 6 12 12 9 6 8 11 14 16 15 13 12 11 11 13 16 21 25 26 26 24 22 20 18 17 16
11 12 13 13 14 14 14 14 14 13 12 10 8 8 9 10 10 10 10 10 13 18 24 32 42 48 52 52 47 42 36 32 29 26 22 19 18 17 15 14 14 16 16 13 14 14 13 10 9 10 12 15 15 15 14 13 13 14 16 20 26 28 28 27 24 21 19 17 16
10 11 12 13 13 14 14 14 14 14 12 10 9 8 9 10 10 10 10 10 11 14 18 26 35 43 48 52 50 45 40 34 32 29 26 22 20 18 16 13 12 13 14 15 15 16 17 15 13 12 13 14 15 15 15 15 15 15 17 20 26 30 30 29 26 23 20 18 16
9 10 12 13 13 14 14 14 14 14 13 12 10 9 8 9 9 10 10 10 10 11 14 19 28 36 44 49 50 48 43 37 34 31 29 26 23 20 18 16 14 13 14 15 17 18 18 18 16 15 14 14 14 14 14 15 15 15 17 19 25 29 31 32 28 24 21 19 17
Height
5505 5502 5498 5494 5491 5487 5484 5480 5476 5473 5469 5465 5462 5458 5454 5451 5447 5444 5440 5436 5433 5429 5426 5423 5419 5416 5413 5410 5407 5404 5402 5399 5397 5394 5392 5389 5387 5385 5384 5382 5380 5379 5378 5376 5375 5374 5373 5373 5372 5371 5370 5370 5370 5370 5370 5370 5370 5371 5371 5371 5371 5371 5371 5371 5372 5374 5375 5378 5380
5503 5499 5496 5492 5488 5484 5481 5477 5474 5469 5466 5462 5458 5454 5451 5447 5443 5439 5436 5432 5428 5424 5421 5418 5414 5411 5408 5405 5402 5399 5397 5394 5392 5389 5387 5385 5383 5380 5379 5377 5375 5374 5373 5372 5371 5370 5369 5369 5368 5367 5366 5366 5366 5366 5366 5366 5367 5367 5367 5367 5367 5367 5367 5368 5368 5369 5371 5374 5376
5501 5497 5494 5489 5486 5482 5478 5474 5471 5467 5463 5459 5454 5451 5447 5443 5439 5435 5431 5427 5424 5420 5416 5413 5409 5406 5403 5400 5397 5394 5392 5389 5387 5384 5382 5380 5378 5376 5374 5372 5370 5369 5368 5367 5366 5365 5365 5364 5364 5363 5363 5362 5362 5362 5362 5363 5363 5364 5364 5363 5363 5363 5363 5364 5364 5366 5368 5369 5372
5499 5495 5491 5488 5484 5480 5476 5472 5468 5464 5460 5455 5451 5447 5443 5439 5434 5431 5427 5423 5419 5414 5411 5407 5404 5400 5397 5394 5391 5388 5386 5383 5381 5379 5377 5374 5373 5370 5369 5367 5365 5364 5363 5362 5361 5361 5360 5360 5359 5359 5359 5358 5358 5358 5359 5359 5359 5360 5360 5359 5359 5359 5359 5360 5360 5362 5364 5365 5367
5497 5494 5489 5486 5481 5477 5473 5469 5465 5461 5456 5452 5448 5443 5439 5434 5430 5426 5422 5418 5413 5409 5405 5401 5398 5394 5391 5388 5385 5382 5379 5377 5375 5372 5370 5368 5366 5364 5363 5361 5359 5358 5357 5357 5356 5356 5356 5355 5355 5354 5354 5354 5354 5354 5355 5355 5356 5356 5356 5356 5355 5355 5355 5356 5357 5358 5359 5361 5363
5495 5491 5487 5483 5479 5475 5471 5466 5462 5458 5453 5449 5444 5439 5435 5430 5426 5421 5417 5412 5408 5404 5399 5395 5391 5388 5384 5381 5378 5375 5373 5370 5368 5365 5363 5362 5360 5358 5357 5355 5354 5352 5352 5351 5351 5351 5351 5351 5351 5350 5350 5350 5350 5350 5351 5352 5353 5353 5353 5352 5351 5351 5352 5352 5353 5354 5356 5358 5359
5493 5489 5485 5481 5476 5472 5468 5464 5459 5455 5450 5446 5441 5436 5431 5427 5422 5417 5412 5408 5403 5398 5394 5389 5385 5381 5378 5374 5371 5368 5365 5363 5360 5358 5356 5354 5353 5351 5350 5349 5347 5346 5346 5346 5346 5346 5346 5346 5346 5346 5346 5346 5346 5347 5348 5349 5349 5350 5349 5349 5348 5348 5348 5349 5349 5351 5352 5354 5356
5490 5487 5483 5478 5474 5470 5465 5461 5457 5452 5447 5443 5438 5433 5428 5423 5418 5413 5408 5403 5398 5393 5388 5384 5379 5375 5371 5367 5364 5361 5358 5355 5353 5351 5349 5347 5345 5344 5343 5342 5341 5340 5340 5340 5340 5341 5341 5341 5341 5341 5341 5341 5342 5343 5344 5345 5346 5346 5346 5345 5345 5344 5345 5345 5346 5348 5349 5350 5352
5488 5484 5480 5476 5472 5468 5463 5459 5454 5449 5445 5440 5435 5430 5424 5419 5414 5409 5403 5398 5393 5387 5382 5377 5373 5368 5364 5360 5356 5353 5350 5347 5345 5343 5341 5339 5338 5337 5336 5335 5334 5334 5334 5334 5335 5336 5336 5336 5336 5337 5337 5337 5338 5339 5340 5342 5342 5342 5342 5342 5342 5341 5342 5342 5343 5344 5345 5347 5349
5486 5482 5478 5474 5470 5465 5461 5456 5452 5447 5442 5437 5431 5426 5421 5415 5410 5404 5399 5393 5387 5382 5376 5371 5366 5361 5356 5353 5349 5345 5342 5339 5337 5334 5333 5332 5330 5329 5329 5328 5328 5328 5328 5329 5329 5330 5331 5331 5332 5332 5332 5333 5334 5336 5337 5338 5338 5339 5339 5339 5339 5339 5339 5339 5340 5341 5342 5344 5345
5484 5480 5476 5472 5468 5463 5459 5454 5449 5444 5439 5434 5428 5423 5417 5412 5406 5400 5394 5388 5382 5376 5370 5364 5359 5354 5349 5344 5340 5336 5333 5330 5328 5326 5324 5323 5322 5322 5322 5322 5322 5322 5323 5323 5324 5325 5326 5326 5327 5327 5328 5329 5330 5332 5333 5334 5334 5335 5336 5336 5336 5336 5335 5336 5336 5337 5339 5340 5342
5483 5479 5474 5470 5465 5461 5456 5451 5446 5441 5436 5430 5425 5419 5414 5408 5402 5396 5390 5383 5377 5370 5364 5357 5351 5346 5340 5336 5331 5328 5324 5321 5318 5316 5315 5314 5314 5314 5314 5315 5315 5316 5317 5318 5319 5320 5321 5321 5322 5323 5324 5325 5327 5328 5329 5330 5331 5332 5332 5333 5333 5333 5333 5333 5333 5334 5335 5337 5339
5481 5476 5472 5467 5463 5458 5454 5449 5444 5438 5433 5427 5422 5416 5410 5404 5398 5392 5385 5378 5371 5364 5357 5350 5344 5338 5332 5327 5322 5318 5314 5311 5309 5307 5306 5305 5306 5306 5307 5308 5309 5310 5311 5312 5314 5315 5316 5317 5318 5319 5320 5321 5323 5325 5326 5327 5328 5328 5329 5330 5330 5330 5330 5329 5330 5331 5332 5334 5335
5479 5474 5470 5465 5460 5456 5451 5446 5440 5435 5430 5424 5419 5413 5407 5400 5394 5387 5380 5373 5365 5358 5350 5343 5336 5330 5324 5318 5314 5309 5306 5303 5300 5299 5298 5298 5298 5299 5300 5301 5303 5304 5306 5307 5309 5310 5312 5313 5314 5315 5316 5318 5319 5321 5322 5323 5324 5325 5326 5327 5327 5327 5327 5327 5327 5328 5329 5331 5332
5476 5472 5467 5463 5458 5453 5448 5443 5438 5433 5427 5422 5416 5410 5404 5397 5390 5383 5375 5368 5359 5351 5343 5336 5329 5323 5317 5311 5306 5303 5299 5296 5294 5292 5291 5291 5291 5293 5294 5296 5297 5299 5301 5302 5304 5306 5308 5309 5310 5311 5313 5314 5316 5318 5319 5320 5321 5322 5323 5324 5324 5324 5324 5324 5324 5325 5326 5328 5329
5474 5470 5465 5460 5455 5451 5446 5441 5435 5430 5424 5419 5413 5406 5400 5393 5386 5379 5370 5362 5353 5345 5337 5329 5323 5316 5311 5306 5301 5297 5294 5292 5289 5288 5287 5286 5287 5288 5289 5291 5293 5295 5297 5299 5300 5302 5304 5305 5306 5308 5310 5312 5313 5314 5316 5317 5318 5319 5320 5321 5321 5322 5322 5321 5322 5322 5323 5325 5327
5472 5468 5463 5459 5454 5449 5444 5438 5433 5428 5422 5416 5410 5403 5397 5389 5382 5374 5366 5357 5348 5339 5331 5324 5318 5312 5306 5301 5297 5294 5291 5288 5286 5284 5283 5283 5284 5285 5287 5289 5291 5292 5294 5295 5297 5299 5300 5302 5303 5305 5307 5309 5310 5312 5313 5314 5315 5316 5317 5318 5319 5319 5319 5319 5319 5320 5321 5322 5324
5470 5466 5461 5457 5452 5447 5441 5436 5431 5425 5419 5413 5407 5400 5393 5386 5378 5370 5361 5352 5343 5335 5327 5320 5314 5308 5303 5299 5294 5291 5288 5285 5284 5282 5281 5282 5283 5284 5286 5288 5290 5291 5292 5293 5294 5296 5298 5299 5301 5303 5304 5306 5308 5309 5310 5311 5312 5314 5314 5315 5316 5316 5316 5316 5316 5317 5319 5320 5322
5469 5464 5460 5455 5450 5445 5439 5434 5429 5423 5417 5411 5404 5397 5390 5383 5375 5366 5357 5348 5339 5331 5323 5316 5310 5305 5301 5296 5292 5289 5286 5284 5282 5281 5281 5282 5283 5285 5288 5289 5290 5291 5291 5292 5293 5294 5296 5298 5299 5301 5302 5304 5304 5306 5307 5308 5310 5311 5312 5313 5313 5314 5314 5314 5314 5315 5317 5319 5320
5468 5463 5458 5453 5448 5443 5438 5432 5427 5421 5415 5409 5402 5395 5388 5380 5372 5363 5354 5344 5336 5327 5320 5314 5308 5303 5299 5295 5291 5288 5285 5284 5282 5282 5282 5283 5285 5288 5289 5291 5292 5292 5293 5293 5293 5294 5295 5297 5298 5299 5300 5301 5302 5303 5304 5306 5307 5308 5309 5310 5311 5312 5312 5312 5313 5314 5315 5317 5319
5466 5461 5456 5452 5447 5441 5436 5430 5425 5419 5413 5407 5400 5393 5386 5378 5369 5360 5351 5342 5333 5325 5318 5312 5307 5302 5298 5294 5291 5288 5286 5284 5284 5284 5284 5286 5288 5289 5291 5292 5293 5293 5294 5294 5294 5294 5295 5296 5297 5298 5299 5299 5300 5301 5302 5304 5305 5306 5307 5309 5309 5310 5310 5311 5312 5313 5314 5315 5317
5465 5460 5455 5450 5445 5440 5434 5429 5423 5417 5411 5405 5398 5391 5384 5376 5367 5358 5349 5339 5331 5323 5316 5311 5306 5302 5298 5294 5291 5289 5287 5286 5285 5286 5287 5288 5290 5291 5292 5292 5293 5294 5294 5294 5294 5294 5295 5296 5297 5297 5297 5298 5299 5300 5301 5302 5303 5305 5306 5307 5308 5308 5309 5309 5310 5311 5313 5314 5316
5463 5458 5453 5449 5443 5438 5433 5427 5422 5416 5410 5403 5397 5390 5382 5374 5366 5357 5347 5338 5330 5322 5316 5310 5306 5302 5298 5295 5293 5290 5289 5288 5288 5288 5289 5290 5291 5292 5293 5293 5294 5294 5295 5295 5295 5296 5297 5296 5296 5296 5297 5297 5298 5298 5299 5301 5302 5304 5305 5305 5306 5307 5308 5308 5309 5310 5311 5313 5314
5462 5457 5452 5447 5442 5437 5431 5426 5420 5414 5408 5402 5395 5389 5381 5374 5365 5355 5346 5337 5329 5322 5316 5311 5306 5303 5299 5297 5294 5293 5291 5291 5290 5290 5291 5291 5292 5293 5294 5294 5295 5296 5296 5296 5299 5300 5299 5297 5296 5296 5296 5296 5296 5297 5298 5300 5301 5302 5303 5304 5305 5306 5306 5307 5308 5309 5310 5312 5314
5461 5455 5450 5445 5440 5435 5430 5424 5419 5413 5407 5401 5394 5388 5380 5373 5364 5355 5346 5337 5329 5323 5317 5312 5308 5304 5301 5299 5297 5295 5294 5293 5293 5292 5292 5293 5293 5294 5295 5295 5296 5297 5296 5297 5304 5304 5299 5298 5297 5296 5296 5295 5296 5297 5298 5299 5299 5300 5301 5303 5304 5305 5306 5306 5307 5308 5309 5311 5312
5460 5454 5449 5444 5439 5434 5429 5424 5418 5413 5407 5400 5394 5387 5380 5372 5364 5355 5346 5338 5330 5323 5318 5313 5309 5306 5304 5301 5299 5297 5296 5295 5295 5294 5294 5294 5294 5295 5296 5297 5297 5297 5298 5300 5304 5303 5299 5298 5297 5297 5296 5296 5296 5296 5297 5297 5298 5299 5301 5303 5304 5305 5305 5306 5306 5307 5308 5309 5311
5459 5454 5449 5444 5439 5434 5428 5423 5418 5412 5406 5400 5394 5387 5380 5372 5364 5355 5346 5338 5331 5324 5319 5315 5311 5308 5306 5303 5301 5300 5299 5298 5297 5296 5296 5295 5295 5295 5296 5298 5298 5298 5299 5302 5301 5299 5297 5297 5298 5297 5297 5296 5296 5296 5296 5296 5297 5299 5301 5303 5304 5304 5304 5305 5305 5306 5307 5308 5310
5459 5454 5448 5443 5438 5433 5428 5423 5417 5412 5406 5400 5394 5387 5380 5372 5364 5356 5347 5339 5332 5325 5320 5316 5313 5310 5308 5305 5304 5302 5301 5300 5299 5298 5298 5297 5296 5296 5297 5298 5299 5299 5301 5302 5299 5298 5297 5297 5298 5298 5298 5297 5296 5296 5295 5296 5297 5299 5301 5303 5304 5304 5304 5304 5304 5305 5306 5307 5309
5459 5454 5448 5443 5438 5433 5428 5423 5417 5412 5406 5400 5394 5387 5380 5373 5365 5357 5349 5340 5333 5327 5322 5318 5314 5312 5309 5308 5306 5304 5303 5302 5301 5300 5299 5299 5298 5297 5297 5298 5299 5301 5303 5303 5299 5298 5298 5298 5298 5298 5298 5297 5296 5295 5295 5296 5298 5299 5301 5302 5303 5303 5303 5303 5304 5304 5305 5306 5307
5459 5454 5448 5443 5438 5433 5428 5423 5417 5412 5406 5400 5394 5387 5380 5373 5365 5358 5350 5342 5335 5329 5323 5319 5316 5313 5311 5309 5308 5306 5305 5304 5303 5302 5301 5300 5299 5299 5299 5299 5299 5301 5303 5303 5299 5298 5299 5299 5299 5299 5298 5297 5296 5295 5295 5296 5298 5299 5301 5302 5302 5302 5302 5302 5303 5303 5304 5305 5305
5459 5454 5448 5443 5438 5433 5428 5423 5417 5412 5406 5400 5394 5387 5380 5374 5366 5359 5351 5344 5337 5330 5324 5320 5317 5315 5313 5311 5309 5308 5307 5305 5304 5304 5303 5302 5301 5301 5300 5300 5300 5301 5303 5303 5300 5299 5299 5299 5299 5299 5299 5298 5296 5295 5295 5296 5298 5299 5300 5301 5301 5301 5301 5302 5302 5303 5303 5304 5304
5459 5454 5449 5443 5438 5433 5428 5423 5418 5412 5407 5401 5394 5388 5381 5374 5367 5360 5352 5345 5338 5332 5326 5322 5318 5316 5314 5312 5310 5309 5308 5307 5306 5305 5304 5303 5303 5302 5302 5301 5300 5301 5304 5304 5301 5299 5299 5299 5299 5299 5299 5298 5297 5295 5295 5296 5297 5299 5299 5300 5300 5300 5301 5301 5301 5302 5302 5303 5303
5460 5454 5449 5444 5439 5433 5428 5423 5418 5413 5407 5402 5395 5389 5383 5376 5368 5361 5354 5346 5340 5334 5329 5324 5320 5317 5315 5313 5312 5310 5309 5308 5307 5306 5305 5304 5304 5303 5303 5302 5301 5301 5304 5306 5302 5300 5300 5299 5299 5299 5299 5299 5297 5296 5295 5296 5296 5298 5299 5299 5299 5299 5300 5300 5300 5300 5301 5302 5303
5460 5455 5449 5444 5439 5434 5429 5423 5418 5413 5408 5403 5397 5390 5384 5377 5370 5363 5355 5348 5341 5335 5330 5325 5321 5318 5316 5314 5313 5311 5310 5309 5308 5307 5306 5305 5304 5304 5304 5303 5302 5302 5303 5305 5302 5300 5299 5299 5300 5300 5299 5299 5298 5297 5296 5296 5296 5297 5297 5298 5298 5299 5299 5299 5299 5299 5300 5301 5302
5461 5455 5450 5445 5439 5434 5429 5424 5419 5414 5409 5404 5398 5392 5385 5379 5372 5364 5357 5350 5344 5338 5332 5327 5323 5319 5317 5314 5313 5312 5310 5309 5309 5308 5307 5306 5305 5305 5304 5304 5303 5303 5303 5305 5302 5300 5299 5299 5300 5300 5300 5299 5299 5298 5297 5297 5296 5296 5296 5297 5297 5297 5298 5298 5299 5299 5300 5301 5302
5462 5456 5451 5445 5440 5435 5430 5425 5420 5415 5410 5404 5399 5393 5386 5380 5373 5367 5360 5353 5347 5341 5335 5330 5326 5322 5319 5316 5314 5312 5311 5310 5309 5309 5308 5307 5306 5305 5305 5304 5304 5303 5304 5305 5302 5300 5300 5300 5300 5300 5300 5299 5299 5298 5297 5297 5296 5296 5296 5296 5296 5297 5297 5297 5298 5299 5299 5300 5301
5462 5457 5451 5446 5441 5436 5431 5426 5421 5416 5411 5405 5399 5394 5388 5382 5375 5369 5362 5356 5350 5344 5338 5333 5329 5324 5321 5318 5316 5314 5312 5310 5309 5309 5308 5307 5307 5306 5305 5304 5304 5304 5304 5304 5302 5301 5301 5300 5300 5300 5300 5299 5299 5298 5297 5297 5296 5296 5295 5295 5296 5296 5296 5297 5297 5298 5299 5300 5301
5463 5457 5452 5447 5442 5437 5432 5427 5422 5417 5412 5406 5401 5395 5389 5383 5377 5371 5365 5359 5353 5347 5341 5336 5331 5327 5323 5320 5318 5315 5314 5312 5310 5309 5308 5307 5306 5306 5305 5304 5304 5304 5304 5304 5302 5301 5301 5300 5300 5300 5299 5299 5298 5297 5297 5296 5296 5295 5295 5295 5296 5296 5296 5297 5297 5298 5299 5299 5301
5463 5458 5453 5448 5443 5438 5434 5429 5424 5419 5414 5408 5402 5397 5391 5385 5379 5373 5367 5361 5356 5350 5344 5339 5334 5329 5325 5322 5319 5317 5315 5313 5312 5310 5309 5308 5307 5306 5305 5304 5304 5303 5303 5302 5302 5301 5301 5300 5300 5299 5299 5298 5298 5297 5297 5296 5296 5295 5295 5295 5295 5296 5296 5296 5297 5298 5299 5300 5301
5464 5459 5454 5449 5444 5439 5435 5430 5425 5420 5415 5410 5404 5399 5393 5387 5382 5376 5370 5364 5359 5353 5348 5343 5338 5333 5328 5324 5321 5318 5316 5314 5313 5311 5310 5309 5308 5306 5305 5304 5304 5303 5302 5302 5301 5301 5300 5300 5299 5299 5298 5298 5297 5297 5296 5296 5296 5295 5295 5295 5295 5295 5296 5296 5297 5298 5299 5300 5301
5465 5460 5455 5450 5446 5441 5436 5431 5427 5422 5416 5411 5406 5401 5395 5389 5384 5378 5373 5367 5362 5357 5352 5346 5341 5336 5331 5327 5323 5320 5318 5316 5314 5313 5311 5310 5309 5307 5306 5305 5304 5303 5302 5302 5301 5301 5300 5300 5300 5299 5298 5298 5297 5296 5296 5296 5295 5295 5295 5295 5295 5295 5295 5296 5297 5297 5298 5299 5301